FDX14 RCTP-RJBB

Flight info

Callsign FDX14
Flight time 2h 0m
Altitude 39000
Route MOLKA1A MOLKA M750 MADOG NIXOV
Aircraft B77L/H-SDE1E2E3FGHIJ2J3J4J5M1RWXY/LB1D1

Departure

Time 2026-05-04 13:06
Airport Taiwan Taoyuan International Airport (RCTP)

Arrival

Time 2026-05-04 15:07
Airport Kansai International Airport (RJBB)
Time Latitude Longitude Altitude Speed Heading
2026-05-04 12:39 25.08730 121.23944 106 ft 0 kts 139°
2026-05-04 12:56 25.08737 121.23938 107 ft 4 kts 139°
2026-05-04 12:56 25.08757 121.23918 106 ft 4 kts 139°
2026-05-04 12:56 25.08778 121.23899 104 ft 4 kts 139°
2026-05-04 12:57 25.08794 121.23884 105 ft 4 kts 152°
2026-05-04 12:57 25.08818 121.23877 105 ft 4 kts 198°
2026-05-04 12:57 25.08837 121.23892 105 ft 4 kts 230°
2026-05-04 12:57 25.08848 121.23907 106 ft 3 kts 229°
2026-05-04 12:58 25.08850 121.23909 105 ft 0 kts 229°
2026-05-04 13:00 25.08842 121.23900 106 ft 9 kts 229°
2026-05-04 13:01 25.08768 121.23804 105 ft 17 kts 229°
2026-05-04 13:01 25.08689 121.23703 105 ft 17 kts 229°
2026-05-04 13:01 25.08606 121.23598 108 ft 23 kts 229°
2026-05-04 13:01 25.08500 121.23464 108 ft 23 kts 229°
2026-05-04 13:02 25.08394 121.23329 107 ft 23 kts 229°
2026-05-04 13:02 25.08289 121.23197 106 ft 23 kts 229°
2026-05-04 13:02 25.08184 121.23064 105 ft 23 kts 229°
2026-05-04 13:02 25.08080 121.22931 105 ft 23 kts 229°
2026-05-04 13:03 25.07976 121.22798 107 ft 23 kts 229°
2026-05-04 13:03 25.07873 121.22664 107 ft 23 kts 230°
2026-05-04 13:03 25.07769 121.22531 107 ft 23 kts 228°
2026-05-04 13:03 25.07663 121.22400 107 ft 23 kts 228°
2026-05-04 13:04 25.07557 121.22268 105 ft 23 kts 229°
2026-05-04 13:04 25.07452 121.22136 106 ft 23 kts 229°
2026-05-04 13:04 25.07349 121.22003 105 ft 23 kts 229°
2026-05-04 13:04 25.07247 121.21872 106 ft 21 kts 229°
2026-05-04 13:05 25.07179 121.21765 105 ft 15 kts 260°
2026-05-04 13:05 25.07229 121.21679 106 ft 14 kts 325°
2026-05-04 13:05 25.07305 121.21625 107 ft 6 kts 352°
2026-05-04 13:05 25.07339 121.21655 107 ft 7 kts 53°
2026-05-04 13:06 25.07426 121.21769 107 ft 47 kts 49°
2026-05-04 13:06 25.07865 121.22330 108 ft 143 kts 50°
2026-05-04 13:06 25.08613 121.23322 510 ft 182 kts 50°
2026-05-04 13:06 25.09497 121.24350 1550 ft 185 kts 45°
2026-05-04 13:07 25.10388 121.25372 2558 ft 188 kts 48°
2026-05-04 13:07 25.11302 121.26540 3116 ft 207 kts 50°
2026-05-04 13:07 25.12243 121.27757 4056 ft 208 kts 48°
2026-05-04 13:07 25.13214 121.28915 4860 ft 217 kts 49°
2026-05-04 13:08 25.14253 121.30294 5192 ft 251 kts 51°
2026-05-04 13:08 25.15409 121.31859 5919 ft 264 kts 51°
2026-05-04 13:08 25.16580 121.33433 6836 ft 272 kts 50°
2026-05-04 13:08 25.17799 121.35057 7839 ft 277 kts 50°
2026-05-04 13:09 25.19047 121.36701 8818 ft 282 kts 50°
2026-05-04 13:09 25.20322 121.38373 9768 ft 288 kts 49°
2026-05-04 13:09 25.21631 121.40083 10645 ft 297 kts 49°
2026-05-04 13:09 25.23018 121.41891 11079 ft 324 kts 48°
2026-05-04 13:10 25.24554 121.43886 11294 ft 358 kts 48°
2026-05-04 13:10 25.26233 121.46071 11632 ft 385 kts 48°
2026-05-04 13:10 25.28000 121.48378 12379 ft 398 kts 49°
2026-05-04 13:10 25.29452 121.51000 13049 ft 410 kts 70°
2026-05-04 13:11 25.29951 121.54123 14007 ft 417 kts 91°
2026-05-04 13:11 25.29638 121.57281 14897 ft 413 kts 97°
2026-05-04 13:11 25.29724 121.60493 15463 ft 427 kts 81°
2026-05-04 13:11 25.30350 121.63728 16348 ft 433 kts 76°
2026-05-04 13:12 25.31145 121.66959 17270 ft 438 kts 75°
2026-05-04 13:12 25.31955 121.70229 18130 ft 445 kts 75°
2026-05-04 13:12 25.32730 121.73564 18926 ft 451 kts 76°
2026-05-04 13:12 25.33458 121.76961 19712 ft 457 kts 77°
2026-05-04 13:13 25.34155 121.80410 20481 ft 462 kts 78°
2026-05-04 13:13 25.34836 121.83902 21214 ft 468 kts 78°
2026-05-04 13:13 25.35516 121.87437 21913 ft 473 kts 78°
2026-05-04 13:13 25.36201 121.91013 22568 ft 478 kts 78°
2026-05-04 13:14 25.36895 121.94632 23199 ft 484 kts 78°
2026-05-04 13:14 25.37599 121.98289 23832 ft 488 kts 78°
2026-05-04 13:14 25.38308 122.01973 24426 ft 493 kts 78°
2026-05-04 13:14 25.39024 122.05691 24992 ft 497 kts 79°
2026-05-04 13:15 25.39745 122.09448 25555 ft 502 kts 79°
2026-05-04 13:15 25.40472 122.13238 26098 ft 506 kts 79°
2026-05-04 13:15 25.41205 122.17057 26630 ft 510 kts 79°
2026-05-04 13:15 25.41951 122.20907 27138 ft 514 kts 78°
2026-05-04 13:16 25.42933 122.24730 27608 ft 519 kts 72°
2026-05-04 13:16 25.44180 122.28501 28098 ft 524 kts 69°
2026-05-04 13:16 25.45540 122.32252 28590 ft 527 kts 68°
2026-05-04 13:16 25.46923 122.36021 29070 ft 531 kts 68°
2026-05-04 13:17 25.48291 122.39833 29499 ft 535 kts 69°
2026-05-04 13:17 25.49629 122.43683 29921 ft 538 kts 70°
2026-05-04 13:17 25.50946 122.47574 30374 ft 541 kts 70°
2026-05-04 13:17 25.52249 122.51479 30914 ft 540 kts 70°
2026-05-04 13:18 25.53541 122.55378 31516 ft 539 kts 70°
2026-05-04 13:18 25.54832 122.59269 32100 ft 538 kts 70°
2026-05-04 13:18 25.56124 122.63159 32658 ft 537 kts 70°
2026-05-04 13:18 25.57415 122.67039 33195 ft 537 kts 70°
2026-05-04 13:19 25.58705 122.70919 33699 ft 537 kts 69°
2026-05-04 13:19 25.59998 122.74803 34183 ft 537 kts 69°
2026-05-04 13:19 25.61288 122.78680 34695 ft 536 kts 69°
2026-05-04 13:19 25.62571 122.82549 35246 ft 534 kts 69°
2026-05-04 13:20 25.63849 122.86402 35799 ft 531 kts 69°
2026-05-04 13:20 25.65130 122.90240 36305 ft 530 kts 69°
2026-05-04 13:20 25.66419 122.94063 36720 ft 530 kts 69°
2026-05-04 13:20 25.67708 122.97876 37256 ft 526 kts 69°
2026-05-04 13:21 25.68984 123.01647 37931 ft 519 kts 69°
2026-05-04 13:21 25.70243 123.05378 38440 ft 516 kts 69°
2026-05-04 13:21 25.71498 123.09104 38795 ft 516 kts 69°
2026-05-04 13:21 25.72752 123.12835 39048 ft 518 kts 69°
2026-05-04 13:22 25.74016 123.16601 39096 ft 523 kts 69°
2026-05-04 13:22 25.76556 123.24183 39112 ft 523 kts 69°
2026-05-04 13:23 25.79062 123.31692 39112 ft 516 kts 69°
2026-05-04 13:23 25.81534 123.39103 39121 ft 515 kts 69°
2026-05-04 13:24 25.84033 123.46603 39120 ft 514 kts 69°
2026-05-04 13:24 25.86518 123.54048 39116 ft 512 kts 67°
2026-05-04 13:25 25.90652 123.60276 39127 ft 506 kts 36°
2026-05-04 13:25 25.93616 123.62317 39109 ft 497 kts 20°
2026-05-04 13:25 26.00002 123.65445 39123 ft 507 kts 20°
2026-05-04 13:26 26.06496 123.68749 39124 ft 511 kts 21°
2026-05-04 13:26 26.12935 123.72114 39119 ft 511 kts 22°
2026-05-04 13:27 26.19365 123.75494 39119 ft 511 kts 22°
2026-05-04 13:27 26.25743 123.78843 39118 ft 509 kts 22°
2026-05-04 13:28 26.32191 123.82230 39118 ft 508 kts 21°
2026-05-04 13:28 26.38578 123.85587 39119 ft 507 kts 21°
2026-05-04 13:29 26.44955 123.88944 39120 ft 506 kts 21°
2026-05-04 13:29 26.51307 123.92292 39127 ft 505 kts 21°
2026-05-04 13:30 26.57660 123.95643 39131 ft 505 kts 21°
2026-05-04 13:30 26.64015 123.99015 39126 ft 505 kts 24°
2026-05-04 13:31 26.66924 124.01158 39107 ft 512 kts 40°
2026-05-04 13:31 26.69312 124.04110 39153 ft 513 kts 49°
2026-05-04 13:31 26.73774 124.10380 39141 ft 516 kts 49°
2026-05-04 13:32 26.78299 124.16629 39129 ft 518 kts 48°
2026-05-04 13:32 26.82908 124.22840 39118 ft 520 kts 48°
2026-05-04 13:33 26.87545 124.29063 39114 ft 521 kts 48°
2026-05-04 13:33 26.92183 124.35311 39111 ft 522 kts 48°
2026-05-04 13:34 26.96821 124.41572 39120 ft 522 kts 48°
2026-05-04 13:34 27.01464 124.47838 39116 ft 522 kts 48°
2026-05-04 13:35 27.08423 124.57217 39119 ft 521 kts 48°
2026-05-04 13:36 27.13055 124.63474 39121 ft 521 kts 48°
2026-05-04 13:36 27.17679 124.69732 39119 ft 521 kts 48°
2026-05-04 13:37 27.22298 124.75992 39121 ft 521 kts 48°
2026-05-04 13:37 27.26919 124.82263 39117 ft 521 kts 48°
2026-05-04 13:38 27.31531 124.88535 39121 ft 520 kts 48°
2026-05-04 13:38 27.36140 124.94809 39120 ft 520 kts 48°
2026-05-04 13:39 27.40745 125.01082 39118 ft 520 kts 48°
2026-05-04 13:39 27.45374 125.07328 39119 ft 520 kts 48°
2026-05-04 13:40 27.49232 125.12523 39119 ft 520 kts 48°
2026-05-04 13:40 27.53868 125.18782 39113 ft 520 kts 48°
2026-05-04 13:41 27.58499 125.25050 39132 ft 520 kts 48°
2026-05-04 13:41 27.63125 125.31326 39151 ft 520 kts 48°
2026-05-04 13:42 27.70060 125.40749 39150 ft 521 kts 48°
2026-05-04 13:42 27.74684 125.47042 39148 ft 521 kts 48°
2026-05-04 13:43 27.79307 125.53343 39150 ft 522 kts 49°
2026-05-04 13:43 27.83932 125.59656 39145 ft 522 kts 49°
2026-05-04 13:44 27.88560 125.65983 39151 ft 522 kts 49°
2026-05-04 13:44 27.93182 125.72312 39146 ft 522 kts 49°
2026-05-04 13:45 27.97801 125.78642 39146 ft 522 kts 49°
2026-05-04 13:45 28.02414 125.84976 39149 ft 521 kts 49°
2026-05-04 13:46 28.07023 125.91316 39152 ft 521 kts 49°
2026-05-04 13:46 28.11628 125.97654 39146 ft 521 kts 49°
2026-05-04 13:47 28.16229 126.04001 39148 ft 521 kts 49°
2026-05-04 13:47 28.20826 126.10352 39151 ft 521 kts 49°
2026-05-04 13:48 28.25424 126.16714 39153 ft 522 kts 49°
2026-05-04 13:48 28.30018 126.23081 39156 ft 522 kts 49°
2026-05-04 13:49 28.34621 126.29461 39158 ft 522 kts 49°
2026-05-04 13:49 28.39250 126.35895 39155 ft 523 kts 49°
2026-05-04 13:50 28.43876 126.42334 39155 ft 523 kts 49°
2026-05-04 13:50 28.48472 126.48740 39154 ft 523 kts 49°
2026-05-04 13:51 28.53065 126.55151 39153 ft 523 kts 49°
2026-05-04 13:51 28.57659 126.61574 39156 ft 524 kts 49°
2026-05-04 13:52 28.64555 126.71240 39157 ft 525 kts 49°
2026-05-04 13:53 28.69154 126.77695 39156 ft 525 kts 49°
2026-05-04 13:53 28.73751 126.84156 39157 ft 525 kts 49°
2026-05-04 13:54 28.80646 126.93863 39154 ft 525 kts 49°
2026-05-04 13:55 28.87536 127.03596 39141 ft 526 kts 49°
2026-05-04 13:55 28.94428 127.13348 39141 ft 526 kts 49°
2026-05-04 13:56 28.99020 127.19858 39140 ft 526 kts 49°
2026-05-04 13:57 29.05901 127.29631 39135 ft 526 kts 49°
2026-05-04 13:58 29.15071 127.42694 39140 ft 527 kts 49°
2026-05-04 13:58 29.21944 127.52516 39149 ft 527 kts 49°
2026-05-04 13:59 29.26494 127.59027 39149 ft 528 kts 49°
2026-05-04 14:00 29.33397 127.68926 39152 ft 528 kts 49°
2026-05-04 14:00 29.40271 127.78809 39149 ft 528 kts 49°
2026-05-04 14:01 29.44818 127.85359 39150 ft 529 kts 49°
2026-05-04 14:02 29.51688 127.95277 39150 ft 530 kts 49°
2026-05-04 14:02 29.56276 128.01908 39150 ft 530 kts 49°
2026-05-04 14:03 29.60859 128.08531 39147 ft 530 kts 49°
2026-05-04 14:03 29.65450 128.15179 39145 ft 530 kts 49°
2026-05-04 14:04 29.72322 128.25157 39147 ft 531 kts 50°
2026-05-04 14:04 29.76901 128.31819 39144 ft 531 kts 50°
2026-05-04 14:05 29.83768 128.41829 39151 ft 530 kts 50°
2026-05-04 14:06 29.88332 128.48494 39138 ft 530 kts 50°
2026-05-04 14:06 29.92899 128.55177 39144 ft 531 kts 50°
2026-05-04 14:07 29.97460 128.61861 39136 ft 530 kts 50°
2026-05-04 14:07 30.02011 128.68542 39143 ft 529 kts 50°
2026-05-04 14:08 30.06556 128.75224 39138 ft 529 kts 50°
2026-05-04 14:08 30.11097 128.81914 39140 ft 530 kts 50°
2026-05-04 14:09 30.17908 128.91969 39139 ft 530 kts 50°
2026-05-04 14:10 30.24716 129.02050 39130 ft 530 kts 50°
2026-05-04 14:10 30.29260 129.08778 39143 ft 531 kts 50°
2026-05-04 14:11 30.33805 129.15518 39137 ft 531 kts 50°
2026-05-04 14:11 30.40607 129.25644 39141 ft 531 kts 50°
2026-05-04 14:12 30.45134 129.32398 39135 ft 531 kts 50°
2026-05-04 14:13 30.51917 129.42532 39131 ft 530 kts 50°
2026-05-04 14:13 30.56434 129.49297 39127 ft 530 kts 51°
2026-05-04 14:14 30.60945 129.56067 39124 ft 530 kts 51°
2026-05-04 14:14 30.67709 129.66235 39120 ft 530 kts 51°
2026-05-04 14:15 30.76713 129.79815 39119 ft 530 kts 51°
2026-05-04 14:16 30.83426 129.89969 39125 ft 530 kts 51°
2026-05-04 14:17 30.89513 130.00812 39122 ft 532 kts 58°
2026-05-04 14:18 30.95283 130.11854 39122 ft 532 kts 57°
2026-05-04 14:19 31.02405 130.25324 39116 ft 533 kts 57°
2026-05-04 14:19 31.06293 130.32675 39120 ft 533 kts 57°
2026-05-04 14:20 31.10182 130.40049 39118 ft 533 kts 57°
2026-05-04 14:20 31.14063 130.47427 39118 ft 533 kts 57°
2026-05-04 14:21 31.19880 130.58513 39120 ft 534 kts 57°
2026-05-04 14:21 31.23761 130.65924 39109 ft 535 kts 57°
2026-05-04 14:22 31.27639 130.73342 39109 ft 534 kts 57°
2026-05-04 14:22 31.31508 130.80763 39117 ft 535 kts 57°
2026-05-04 14:23 31.37311 130.91913 39112 ft 535 kts 57°
2026-05-04 14:24 31.41174 130.99353 39113 ft 535 kts 57°
2026-05-04 14:24 31.45030 131.06798 39108 ft 535 kts 58°
2026-05-04 14:25 31.48887 131.14255 39112 ft 535 kts 58°
2026-05-04 14:25 31.54638 131.25404 39107 ft 535 kts 58°
2026-05-04 14:26 31.58477 131.32869 39109 ft 534 kts 58°
2026-05-04 14:26 31.62317 131.40342 39109 ft 535 kts 58°
2026-05-04 14:27 31.66152 131.47830 39102 ft 536 kts 58°
2026-05-04 14:27 31.69985 131.55337 39099 ft 536 kts 58°
2026-05-04 14:28 31.73819 131.62860 39103 ft 536 kts 58°
2026-05-04 14:28 31.77645 131.70379 39100 ft 537 kts 58°
2026-05-04 14:29 31.85300 131.85472 39100 ft 537 kts 58°
2026-05-04 14:30 31.89123 131.93034 39104 ft 538 kts 58°
2026-05-04 14:31 31.94851 132.04390 39112 ft 538 kts 58°
2026-05-04 14:32 32.02484 132.19572 39106 ft 538 kts 58°
2026-05-04 14:32 32.06286 132.27163 39105 ft 538 kts 58°
2026-05-04 14:33 32.10088 132.34765 39113 ft 538 kts 58°
2026-05-04 14:33 32.14213 132.42090 39107 ft 535 kts 49°
2026-05-04 14:34 32.19086 132.48704 39113 ft 534 kts 46°
2026-05-04 14:34 32.24025 132.55260 39110 ft 534 kts 46°
2026-05-04 14:35 32.28903 132.61814 39112 ft 534 kts 46°
2026-05-04 14:35 32.33785 132.68449 39110 ft 535 kts 47°
2026-05-04 14:36 32.38657 132.75100 39110 ft 536 kts 47°
2026-05-04 14:36 32.43537 132.81770 39101 ft 536 kts 47°
2026-05-04 14:37 32.48416 132.88443 39101 ft 536 kts 47°
2026-05-04 14:37 32.53284 132.95112 39101 ft 536 kts 47°
2026-05-04 14:38 32.58161 133.01805 39102 ft 536 kts 47°
2026-05-04 14:38 32.63025 133.08493 39100 ft 536 kts 47°
2026-05-04 14:39 32.67889 133.15198 38955 ft 538 kts 47°
2026-05-04 14:39 32.70349 133.18590 38173 ft 545 kts 47°
2026-05-04 14:39 32.72816 133.21996 37527 ft 541 kts 47°
2026-05-04 14:40 32.77694 133.28743 36151 ft 535 kts 47°
2026-05-04 14:40 32.80111 133.32091 35372 ft 535 kts 48°
2026-05-04 14:40 32.82541 133.35457 34494 ft 537 kts 48°
2026-05-04 14:40 32.84972 133.38830 33590 ft 539 kts 48°
2026-05-04 14:41 32.87412 133.42219 32642 ft 540 kts 48°
2026-05-04 14:41 32.89857 133.45614 31641 ft 542 kts 48°
2026-05-04 14:41 32.94773 133.52456 29885 ft 539 kts 48°
2026-05-04 14:42 32.99576 133.59159 28655 ft 526 kts 48°
2026-05-04 14:42 33.01941 133.62461 28038 ft 520 kts 48°
2026-05-04 14:42 33.04271 133.65719 27430 ft 514 kts 48°
2026-05-04 14:43 33.06581 133.68950 26835 ft 508 kts 48°
2026-05-04 14:43 33.08859 133.72139 26235 ft 503 kts 48°
2026-05-04 14:43 33.11111 133.75293 25627 ft 498 kts 48°
2026-05-04 14:43 33.13345 133.78427 25046 ft 493 kts 48°
2026-05-04 14:44 33.15551 133.81524 24454 ft 488 kts 48°
2026-05-04 14:44 33.17738 133.84596 23856 ft 483 kts 48°
2026-05-04 14:44 33.19900 133.87635 23257 ft 479 kts 48°
2026-05-04 14:44 33.22050 133.90663 22691 ft 475 kts 48°
2026-05-04 14:45 33.24176 133.93654 22094 ft 470 kts 48°
2026-05-04 14:45 33.26279 133.96618 21509 ft 465 kts 47°
2026-05-04 14:45 33.28360 133.99551 20932 ft 461 kts 48°
2026-05-04 14:45 33.30425 134.02467 20347 ft 457 kts 48°
2026-05-04 14:46 33.32464 134.05349 19769 ft 453 kts 48°
2026-05-04 14:46 33.34487 134.08209 19193 ft 448 kts 48°
2026-05-04 14:46 33.36495 134.11047 18604 ft 444 kts 48°
2026-05-04 14:46 33.38475 134.13849 17994 ft 440 kts 48°
2026-05-04 14:47 33.40442 134.16641 17449 ft 436 kts 48°
2026-05-04 14:47 33.42383 134.19400 16837 ft 432 kts 48°
2026-05-04 14:47 33.44313 134.22146 16249 ft 428 kts 48°
2026-05-04 14:47 33.46224 134.24860 15651 ft 425 kts 48°
2026-05-04 14:48 33.48119 134.27549 15068 ft 421 kts 48°
2026-05-04 14:48 33.49999 134.30222 14466 ft 419 kts 48°
2026-05-04 14:48 33.51841 134.32842 13877 ft 416 kts 48°
2026-05-04 14:48 33.53698 134.35488 13272 ft 412 kts 48°
2026-05-04 14:49 33.55534 134.38108 12672 ft 409 kts 48°
2026-05-04 14:49 33.57349 134.40696 12124 ft 404 kts 48°
2026-05-04 14:49 33.59149 134.43269 11575 ft 401 kts 48°
2026-05-04 14:49 33.60923 134.45799 11236 ft 389 kts 47°
2026-05-04 14:50 33.62809 134.48024 10961 ft 373 kts 37°
2026-05-04 14:50 33.64841 134.49881 10717 ft 362 kts 33°
2026-05-04 14:50 33.66840 134.51651 10537 ft 352 kts 34°
2026-05-04 14:50 33.68755 134.53417 10381 ft 342 kts 35°
2026-05-04 14:51 33.70598 134.55161 10228 ft 333 kts 36°
2026-05-04 14:51 33.72405 134.56773 10084 ft 312 kts 26°
2026-05-04 14:51 33.74380 134.57496 10024 ft 288 kts
2026-05-04 14:51 33.76304 134.57369 9982 ft 267 kts 347°
2026-05-04 14:52 33.78025 134.56719 9985 ft 256 kts 334°
2026-05-04 14:52 33.79638 134.55822 9981 ft 255 kts 332°
2026-05-04 14:52 33.81240 134.54904 9982 ft 255 kts 333°
2026-05-04 14:52 33.82843 134.53997 9990 ft 255 kts 333°
2026-05-04 14:53 33.84453 134.53101 9994 ft 255 kts 333°
2026-05-04 14:53 33.86122 134.52473 9764 ft 253 kts 356°
2026-05-04 14:53 33.87815 134.53029 9317 ft 258 kts 28°
2026-05-04 14:53 33.89338 134.54194 8895 ft 259 kts 28°
2026-05-04 14:54 33.90871 134.55285 8814 ft 255 kts 27°
2026-05-04 14:54 33.92412 134.56361 8697 ft 257 kts 27°
2026-05-04 14:54 33.93966 134.57440 8554 ft 258 kts 26°
2026-05-04 14:54 33.95523 134.58520 8450 ft 258 kts 26°
2026-05-04 14:55 33.97081 134.59601 8343 ft 259 kts 26°
2026-05-04 14:55 33.98637 134.60681 8219 ft 258 kts 26°
2026-05-04 14:55 34.00193 134.61759 8097 ft 258 kts 26°
2026-05-04 14:55 34.01745 134.62833 7988 ft 257 kts 26°
2026-05-04 14:56 34.03287 134.63899 7862 ft 255 kts 26°
2026-05-04 14:56 34.04820 134.64961 7747 ft 254 kts 26°
2026-05-04 14:56 34.06350 134.66021 7634 ft 253 kts 26°
2026-05-04 14:56 34.07872 134.67077 7504 ft 252 kts 26°
2026-05-04 14:57 34.09392 134.68130 7404 ft 252 kts 26°
2026-05-04 14:57 34.10908 134.69181 7296 ft 251 kts 27°
2026-05-04 14:57 34.12416 134.70228 7178 ft 250 kts 26°
2026-05-04 14:57 34.13921 134.71274 7066 ft 249 kts 26°
2026-05-04 14:58 34.15264 134.72552 6865 ft 251 kts 51°
2026-05-04 14:58 34.16127 134.74387 6669 ft 254 kts 59°
2026-05-04 14:58 34.16971 134.76292 6411 ft 259 kts 58°
2026-05-04 14:58 34.17540 134.77557 6236 ft 258 kts 58°
2026-05-04 14:59 34.18667 134.80061 5885 ft 249 kts 58°
2026-05-04 14:59 34.19492 134.81889 5639 ft 248 kts 58°
2026-05-04 14:59 34.21157 134.85578 5149 ft 251 kts 58°
2026-05-04 15:00 34.21994 134.87428 4887 ft 250 kts 58°
2026-05-04 15:00 34.22825 134.89267 4643 ft 247 kts 58°
2026-05-04 15:00 34.23644 134.91082 4393 ft 245 kts 58°
2026-05-04 15:01 34.25398 134.94541 3931 ft 239 kts 50°
2026-05-04 15:01 34.26423 134.96112 3739 ft 237 kts 48°
2026-05-04 15:01 34.27441 134.97628 3596 ft 236 kts 47°
2026-05-04 15:01 34.28492 134.99190 3378 ft 242 kts 47°
2026-05-04 15:02 34.29559 135.00769 3168 ft 242 kts 48°
2026-05-04 15:02 34.30616 135.02345 2953 ft 240 kts 48°
2026-05-04 15:02 34.31652 135.03890 2919 ft 231 kts 48°
2026-05-04 15:02 34.32619 135.05334 2946 ft 210 kts 48°
2026-05-04 15:03 34.33483 135.06624 2911 ft 190 kts 47°
2026-05-04 15:03 34.34307 135.07848 2645 ft 185 kts 47°
2026-05-04 15:03 34.35101 135.09028 2420 ft 178 kts 47°
2026-05-04 15:03 34.35859 135.10161 2163 ft 167 kts 48°
2026-05-04 15:04 34.36568 135.11219 1974 ft 158 kts 48°
2026-05-04 15:04 34.37244 135.12225 1782 ft 151 kts 48°
2026-05-04 15:04 34.37891 135.13191 1565 ft 145 kts 48°
2026-05-04 15:04 34.38517 135.14126 1373 ft 142 kts 48°
2026-05-04 15:05 34.39142 135.15049 1190 ft 142 kts 48°
2026-05-04 15:05 34.39556 135.15664 1060 ft 142 kts 49°
2026-05-04 15:05 34.40379 135.16915 803 ft 142 kts 49°
2026-05-04 15:05 34.40785 135.17530 693 ft 140 kts 48°
2026-05-04 15:06 34.41620 135.18761 460 ft 143 kts 49°
2026-05-04 15:06 34.42031 135.19376 330 ft 141 kts 49°
2026-05-04 15:06 34.42644 135.20303 138 ft 141 kts 50°
2026-05-04 15:07 34.43759 135.21965 36 ft 89 kts 50°
2026-05-04 15:07 34.44033 135.22366 33 ft 32 kts 57°
2026-05-04 15:07 34.44099 135.22585 34 ft 26 kts 79°
2026-05-04 15:07 34.44093 135.22730 33 ft 13 kts 131°
2026-05-04 15:08 34.44041 135.22724 32 ft 8 kts 230°
2026-05-04 15:08 34.44003 135.22670 33 ft 10 kts 229°
2026-05-04 15:08 34.43954 135.22602 32 ft 12 kts 229°
2026-05-04 15:08 34.43899 135.22523 33 ft 13 kts 230°
2026-05-04 15:09 34.43840 135.22435 33 ft 13 kts 231°
2026-05-04 15:09 34.43763 135.22439 32 ft 13 kts 141°
2026-05-04 15:09 34.43688 135.22513 33 ft 15 kts 142°
2026-05-04 15:10 34.43543 135.22555 33 ft 8 kts 247°
2026-05-04 15:10 34.43513 135.22489 33 ft 8 kts 227°
2026-05-04 15:10 34.43492 135.22459 33 ft 0 kts 230°